Change the Weather History Date:

Friday, September 28, 2012

  Actual Average Record
Temperature  
Mean Temperature 65 °F 67 °F  
Max Temperature 68 °F 81 °F 98 °F (1994)
Min Temperature 62 °F 54 °F 36 °F (1918)
Degree Days  
Heating Degree Days 0 2  
Month to date heating degree days 17 19  
Since 1 July heating degree days 17 19  
Cooling Degree Days 0 4  
Month to date cooling degree days 253 214  
Year to date cooling degree days 2235 1740  
Growing Degree Days 15 (Base 50)    
Moisture  
Dew Point 63 °F    
Average Humidity 91    
Maximum Humidity 100    
Minimum Humidity 81    
Precipitation  
Precipitation 0.18 in 0.07 in 1.13 in (2004)
Month to date precipitation 1.65 2.37  
Year to date precipitation 10.07 15.44  
Snow  
Snow 0.00 in 0.00 in 0.00 in (2002)
Month to date snowfall 0.0 0.0  
Since 1 July snowfall 0.0 0.0  
Since 1 September snowfall 0.0 0.0  
Snow Depth 0.00 in    
Sea Level Pressure  
Sea Level Pressure 30.08 in    
Wind  
Wind Speed 6 mph (ESE)    
Max Wind Speed 13 mph    
Max Gust Speed 15 mph    
Visibility 7 miles    
Events Rain    
T = Trace of Precipitation, MM = Missing Value Source: NWS Daily Summary

Daily Weather History Graph

Daily Weather History Graph

Search for Another Location

Airport or City:

Trip Planner

Search our weather history database for the weather conditions in past years. The results will help you decide how hot, cold, wet, or windy it might be!

Date:

Astronomy

Sep. 28, 2012 Rise Set
Actual Time 7:39 AM CDT 7:35 PM CDT
Civil Twilight 7:15 AM CDT 7:59 PM CDT
Nautical Twilight 6:46 AM CDT 8:28 PM CDT
Astronomical Twilight 6:17 AM CDT 8:57 PM CDT
Moon 6:37 PM CDT (9/28) 6:14 AM CDT (9/28)
Length of Visible Light 12h 44m
Length of Day
11h 55m
Waxing Gibbous, 98% of the Moon is Illuminated
Sep 28
Waxing Gibbous
Sep 29
Full
Oct 8
Last Quarter
Oct 15
New
Oct 21
First Quarter

Hourly Weather History & Observations

Time (CDT) Temp. Dew Point Humidity Pressure Visibility Wind Dir Wind Speed Gust Speed Precip Events Conditions
12:53 AM 63.0 °F 62.1 °F 97% 30.03 in 8.0 mi SSE 3.5 mph - N/A   Mostly Cloudy
1:53 AM 63.0 °F 63.0 °F 100% 30.04 in 6.0 mi SE 5.8 mph - N/A   Mostly Cloudy
2:53 AM 62.1 °F 62.1 °F 100% 30.04 in 4.0 mi East 4.6 mph - N/A   Mostly Cloudy
3:53 AM 62.1 °F 62.1 °F 100% 30.02 in 3.0 mi ENE 4.6 mph - N/A   Mostly Cloudy
4:48 AM 62.6 °F 62.6 °F 100% 30.12 in 5.0 mi East 4.6 mph - N/A   Mostly Cloudy
4:53 AM 63.0 °F 63.0 °F 100% 30.01 in 5.0 mi ESE 4.6 mph - N/A   Mostly Cloudy
5:51 AM 62.6 °F 62.6 °F 100% 30.12 in 4.0 mi East 3.5 mph - N/A   Overcast
5:53 AM 63.0 °F 63.0 °F 100% 30.01 in 4.0 mi East 3.5 mph - N/A   Overcast
6:53 AM 63.0 °F 63.0 °F 100% 30.02 in 6.0 mi ESE 6.9 mph - N/A   Overcast
7:53 AM 64.0 °F 63.0 °F 96% 30.04 in 4.0 mi East 6.9 mph - N/A   Overcast
8:53 AM 64.0 °F 63.0 °F 96% 30.06 in 5.0 mi East 6.9 mph - N/A   Overcast
9:32 AM 64.4 °F 64.4 °F 100% 30.17 in 1.2 mi ESE 8.1 mph - N/A   Overcast
9:53 AM 64.0 °F 64.0 °F 100% 30.07 in 1.2 mi ESE 8.1 mph - 0.00 in Rain Light Rain
10:03 AM 64.4 °F 64.4 °F 100% 30.18 in 2.5 mi East 6.9 mph - 0.00 in   Overcast
10:10 AM 64.4 °F 64.4 °F 100% 30.18 in 4.0 mi East 6.9 mph - 0.00 in   Overcast
10:19 AM 64.4 °F 64.4 °F 100% 30.18 in 4.0 mi ESE 9.2 mph - 0.00 in   Overcast
10:53 AM 64.9 °F 64.0 °F 97% 30.08 in 7.0 mi ESE 10.4 mph - 0.00 in   Overcast
11:22 AM 64.4 °F 64.4 °F 100% 30.18 in 1.8 mi ESE 9.2 mph - 0.00 in Rain Light Rain
11:34 AM 64.4 °F 64.4 °F 100% 30.18 in 3.0 mi ESE 9.2 mph - 0.01 in Rain Light Rain
11:43 AM 64.4 °F 64.4 °F 100% 30.17 in 5.0 mi ESE 10.4 mph - 0.01 in   Overcast
11:53 AM 64.9 °F 64.0 °F 97% 30.07 in 3.0 mi SE 9.2 mph - 0.01 in   Overcast
11:55 AM 64.4 °F 64.4 °F 100% 30.17 in 2.0 mi SE 9.2 mph - 0.00 in Rain Light Rain
12:22 PM 64.4 °F 64.4 °F 100% 30.17 in 4.0 mi ESE 10.4 mph - 0.01 in Rain Light Rain
12:53 PM 66.0 °F 64.0 °F 93% 30.06 in 10.0 mi ESE 10.4 mph - 0.01 in   Overcast
12:56 PM 66.2 °F 64.4 °F 94% 30.16 in 10.0 mi ESE 10.4 mph - N/A   Overcast
1:53 PM 66.0 °F 63.0 °F 90% 30.03 in 10.0 mi ESE 6.9 mph - 0.00 in   Overcast
2:00 PM 66.2 °F 62.6 °F 88% 30.13 in 10.0 mi East 8.1 mph - N/A   Overcast
2:32 PM 66.2 °F 62.6 °F 88% 30.12 in 10.0 mi ESE 6.9 mph - N/A   Overcast
2:39 PM 66.2 °F 62.6 °F 88% 30.12 in 10.0 mi SE 8.1 mph - N/A   Overcast
2:53 PM 68.0 °F 63.0 °F 84% 30.02 in 10.0 mi ESE 8.1 mph - N/A   Overcast
3:12 PM 66.2 °F 62.6 °F 88% 30.12 in 10.0 mi ESE 8.1 mph - 0.00 in Rain Light Rain
3:53 PM 66.9 °F 64.0 °F 90% 30.02 in 10.0 mi SSE 9.2 mph - 0.00 in Rain Light Rain
4:32 PM 66.2 °F 62.6 °F 88% 30.11 in 10.0 mi SSE 9.2 mph - 0.00 in   Mostly Cloudy
4:53 PM 66.0 °F 62.1 °F 87% 30.00 in 10.0 mi SE 8.1 mph - 0.00 in   Overcast
5:36 PM 66.2 °F 62.6 °F 88% 30.10 in 10.0 mi SE 6.9 mph - 0.00 in Rain Light Rain
5:49 PM 66.2 °F 62.6 °F 88% 30.10 in 10.0 mi ESE 5.8 mph - 0.00 in Rain Light Rain
5:53 PM 66.0 °F 62.1 °F 87% 29.99 in 10.0 mi ESE 4.6 mph - 0.00 in Rain Light Rain
6:01 PM 66.2 °F 62.6 °F 88% 30.10 in 10.0 mi ESE 6.9 mph - 0.00 in Rain Light Rain
6:40 PM 64.4 °F 62.6 °F 94% 30.10 in 10.0 mi ESE 4.6 mph - 0.00 in Rain Light Rain
6:53 PM 64.9 °F 62.1 °F 90% 30.00 in 10.0 mi SE 3.5 mph - 0.00 in Rain Light Rain
7:53 PM 64.0 °F 62.1 °F 93% 30.00 in 10.0 mi SE 3.5 mph - 0.02 in Rain Light Rain
8:53 PM 64.0 °F 63.0 °F 96% 30.01 in 10.0 mi ESE 3.5 mph - 0.01 in Rain Light Rain
9:53 PM 63.0 °F 62.1 °F 97% 30.03 in 8.0 mi East 3.5 mph - 0.02 in Rain Light Rain
10:53 PM 63.0 °F 62.1 °F 97% 30.04 in 9.0 mi ENE 4.6 mph - 0.03 in Rain Light Rain
11:53 PM 62.1 °F 62.1 °F 100% 30.04 in 6.0 mi NE 3.5 mph - 0.04 in Rain Light Rain